Simultaneous Nadir Overpasses (SNOs) Predictions

Prediction of SNOs between TERRA and METOP-C Satellite Orbit:

Table of predicted SNOs for the next 14.0 days since TLE Epoch: 4/27/2019
Index Date (TERRA) Time (TERRA) Lat,Lon (TERRA) SZA (TERRA ) Date (METOP-C) Time (METOP-C) Lat,Lon (METOP-C) SZA (METOP-C ) Distance(km) Time Diff (sec)
1 04/27/2019 23:34:38 81.30,-126.41 70.25 04/27/2019 23:34:23 81.30,-126.38 70.24 0.72 15
2 04/28/2019 00:24:05 -81.30, 41.10 109.78 04/28/2019 00:25:03 -81.30, 41.17 109.74 1.37 58
3 04/30/2019 19:08:54 81.29, -60.16 69.36 04/30/2019 19:08:47 81.30, -60.08 69.37 1.37 7
4 04/30/2019 19:58:20 -81.31, 107.75 110.61 04/30/2019 19:59:26 -81.31, 107.93 110.56 3.11 66
5 05/03/2019 13:53:43 -81.30,-161.31 111.45 05/03/2019 13:52:31 -81.29,-161.39 111.50 1.35 72
6 05/03/2019 14:43:09 81.30, 6.45 68.56 05/03/2019 14:43:10 81.30, 6.60 68.58 2.52 1
7 05/03/2019 15:32:20 -81.58,-179.75 110.55 05/03/2019 15:33:34 -81.33,-179.42 110.61 28.10 74
8 05/06/2019 09:27:58 -81.28, -95.07 112.28 05/06/2019 09:26:54 -81.29, -95.02 112.30 1.10 64
9 05/06/2019 10:17:24 81.29, 72.67 67.73 05/06/2019 10:17:34 81.29, 72.50 67.72 2.86 10
10 05/09/2019 05:02:13 -81.29, -28.47 113.01 05/09/2019 05:01:18 -81.29, -28.66 113.06 3.15 55




NCC Satellite Simultaneous Nadir Overpasses (SNOs) Prediction Service
